TimeCAT,TemperatureF,Dew PointF,Humidity,Sea Level PressureIn,VisibilityMPH,Wind Direction,Wind SpeedMPH,Gust SpeedMPH,PrecipitationIn,Events,Conditions,WindDirDegrees,DateUTC
12:00 AM,51.8,42.8,71,30.21,-9999.0,East,4.6,-,N/A,,Clear,80,2013-06-24 22:00:00
1:00 AM,48.2,41.0,76,30.18,-9999.0,SSE,4.6,-,N/A,,Clear,150,2013-06-24 23:00:00
2:00 AM,49,43,72,,6,SSE,1.2,,,,,150,2013-06-25 00:00:00
3:00 AM,48.2,42.8,82,30.18,-9999.0,Variable,2.3,-,N/A,,Clear,0,2013-06-25 01:00:00
4:00 AM,44.6,39.2,81,30.18,-9999.0,Variable,1.2,-,N/A,,Clear,0,2013-06-25 02:00:00
5:00 AM,41.0,33.8,76,30.18,-9999.0,Variable,2.3,-,N/A,,Clear,0,2013-06-25 03:00:00
6:00 AM,41.0,35.6,81,30.18,-9999.0,Variable,1.2,-,N/A,,Clear,0,2013-06-25 04:00:00
7:00 AM,41.0,33.8,76,30.21,-9999.0,North,6.9,-,N/A,,Clear,10,2013-06-25 05:00:00
8:00 AM,46,38,65,,6,NNE,1.2,,,,,30,2013-06-25 06:00:00
8:00 AM,46.4,37.4,71,30.21,-9999.0,Variable,1.2,-,N/A,,Clear,0,2013-06-25 06:00:00
9:00 AM,59.0,44.6,59,30.24,-9999.0,NNW,1.2,-,N/A,,Clear,340,2013-06-25 07:00:00
10:00 AM,69.8,48.2,46,30.24,-9999.0,NNW,6.9,-,N/A,,Clear,330,2013-06-25 08:00:00
11:00 AM,73.4,48.2,41,30.21,-9999.0,NNW,6.9,-,N/A,,Clear,340,2013-06-25 09:00:00
12:00 PM,75.2,48.2,38,30.18,-9999.0,WSW,9.2,-,N/A,,Clear,240,2013-06-25 10:00:00
1:00 PM,77.0,46.4,34,30.15,-9999.0,NW,5.8,-,N/A,,Clear,310,2013-06-25 11:00:00
2:00 PM,78.8,46.4,32,30.12,-9999.0,NE,4.6,-,N/A,,Clear,50,2013-06-25 12:00:00
3:00 PM,77.0,44.6,32,30.09,-9999.0,NW,8.1,-,N/A,,Clear,320,2013-06-25 13:00:00
4:00 PM,78.8,44.6,30,30.09,-9999.0,NW,8.1,-,N/A,,Clear,320,2013-06-25 14:00:00
5:00 PM,77.0,48.2,36,30.09,-9999.0,NNE,1.2,-,N/A,,Clear,20,2013-06-25 15:00:00
6:00 PM,71.6,46.4,41,30.09,-9999.0,WNW,3.5,-,N/A,,Clear,300,2013-06-25 16:00:00
7:00 PM,68.0,44.6,43,30.12,-9999.0,NNW,4.6,-,N/A,,Clear,330,2013-06-25 17:00:00
8:00 PM,64.4,42.8,45,30.12,-9999.0,WNW,6.9,-,N/A,,Clear,300,2013-06-25 18:00:00
9:00 PM,64.4,42.8,45,30.12,-9999.0,WNW,4.6,-,N/A,,Clear,300,2013-06-25 19:00:00
10:00 PM,59.0,39.2,48,30.12,-9999.0,Calm,Calm,-,N/A,,Clear,0,2013-06-25 20:00:00
11:00 PM,55.4,44.6,67,30.15,-9999.0,WSW,4.6,-,N/A,,Clear,250,2013-06-25 21:00:00